STARLINK-3093, 49141

Orbit data source: Space-Track

STARLINK-3093, 49141 is a payload satellite owned by SpaceX/Seattle (US) in LEO that was launched on Tue, 14 Sep 2021 UTC via an FALCON 9 launch vehicle from the Air Force Western Test Range (AFWTR). Payload-class satellites include a variety of spacecraft equipped with specific instruments for various scientific and technological missions. These include communications satellites like Starlink; space stations such as the ISS; scientific satellites like the Hubble; Earth observation satellites from companies like Planet Labs, Umbra, and HawkEye 360; GPS; miniature CubeSats for education and research; and military/defense satellites.

Loading next visibility...
Identifier
49141, 2021-082M
Orbit
LEO
Country
Flag of USUS
Related business
Manufacturer
SpaceX/Seattle
Mission
Operational Commercial Communications
Bus & Motor
STARLINK, Unknown motor
Mass
297 kg wet, ~275 kg dry
Launch date (UTC)
2021-09-14 (5 years ago)
Launch vehicle
FALCON 9
Launch site
Air Force Western Test Range (AFWTR)
Object type
Payload
Rocket body
Debris
Shape & HBR
Box + 1 Pan, 10.1 m
Radar Cross Section
13.562 m², Large (>1 m²)

Expand to show TLE details & history
Last TLE update: 2 days ago

TLE from 2 days ago
0 STARLINK-3093
1 49141U 21082M   26171.31988213 -.00001678  00000-0 -13293-3 0  9999
2 49141  70.0008  35.7008 0002591 263.1307  96.9557 14.98315890262557
Epoch: 2026-06-20T07:40Z
TLE epoch observation values (Epoch: 2026-06-20T07:40:37.816Z)
Latitude
-0.00003°
Longitude
12.00702°
Altitude
574.742 km
Speed
7.574 km/s
True Right ascension
02h 22m 48s
True Declination
0° 00' 00"
Sunlit
Object was in daylight at epoch
Visualization orbit readout
Latitude
Unknown
Longitude
Unknown
Altitude
Unknown
Speed
Unknown
Apparent Right ascension
Unknown
Apparent Declination
Unknown
Sunlit
N/A
Visualization observer readout
Local Sidereal Time
21:48:35
Azimuth
Unknown
Elevation
Unknown
Doppler factor
Unknown
Orbital elements
Apogee altitude
571.848 km
Perigee altitude
568.247 km
Semi-major axis
6,948.185 km
Eccentricity
0.00026
Inclination
70.0008°
RAAN
35.7008°
Arg. of periapsis
263.1307°
True anomaly
96.98517°
Mean anomaly
96.9557°
Eccentric anomaly
96.97044°
Mean motion
3.74745 °/min
Orbital period
96.07 mins
BSTAR
-0.00013293
Loading maneuver chart data...
Computing Atmospheric mass density...

Documentation

Showing up to 5 results
|